Flag for Switzerland Weather past 2 weeks in Davos, Graubünden, Switzerland

Now
72 °F

Mild.


Feels Like: 76 °F
Forecast: 35 / 51 °F
Wind: 8 mph from Northeast

Location: Chur-Ems

Current Time: Sep 21, 2014 at 5:14:23 PM

Latest Report: Sep 21, 2014 at 4:00 PM


Visibility: N/A

Pressure: 29.89 "Hg

Humidity: 57%

Dew point: 56 °F

Location of DavosLocation

Historic Weather in Davos — Graph

°F

Davos temperature yesterday

Maximum temperature yesterday: 69 °F (at 3:00 PM)
Minimum temperature yesterday: 58 °F (at 7:00 AM)
Average temperature yesterday: 62 °F

Past Weeks' High & Low Weather Summary

 TemperatureHumidityPressure
High77 °F (Sep 7, 4:00 PM)96% (Sep 12, 6:00 AM)30.16 "Hg (Sep 12, 6:00 AM)
Low50 °F (Sep 12, 6:00 AM)41% (Sep 18, 12:00 PM)29.81 "Hg (Sep 6, 4:00 PM)
Average62 °F75%29.99 "Hg
* Reported Sep 6 4:00 PM — Sep 21 4:00 PM, Davos, Weather by CustomWeather, © 2014

Note: Actual official high and low records may vary slightly from our data, if they occured in-between our weather recording intervals... More about our weather records

Advertising

Davos weather history for previous 24 hours

 ConditionsComfort  
Time TempWeatherWind HumidityBarometerVisibility
4:00 PM
Sep 21
72 °FMild.8 mph57%29.89 "HgN/A
3:00 PM70 °FMild.7 mph57%29.91 "HgN/A
2:00 PM67 °FPartly sunny.9 mph69%29.95 "Hg12 mi
1:00 PM66 °FMild.6 mph76%29.98 "HgN/A
12:00 PM64 °FMild.5 mph85%30.02 "HgN/A
11:00 AM64 °FOvercast.1 mph79%30.03 "Hg10 mi
10:00 AM61 °FCool.2 mph86%30.05 "HgN/A
9:00 AM59 °FCool.1 mph93%30.06 "HgN/A
8:00 AM58 °FFog.2 mph94%30.06 "Hg7 mi
7:00 AM58 °FCool.3 mph89%30.05 "HgN/A
6:00 AM57 °FCool.No wind94%30.06 "HgN/A
5:00 AM58 °FOvercast.2 mph92%30.06 "Hg10 mi
4:00 AM58 °FCool.No wind93%30.08 "HgN/A
3:00 AM59 °FCool.No wind92%30.07 "HgN/A
2:00 AM59 °FOvercast.No wind94%30.09 "Hg10 mi
1:00 AM59 °FCool.1 mph92%30.08 "HgN/A
12:00 AM61 °FCool.2 mph90%30.08 "HgN/A
11:00 PM
Sep 20
62 °FDrizzle. Overcast.6 mph90%30.07 "Hg9 mi
10:00 PM62 °FMild.3 mph83%30.05 "HgN/A
9:00 PM61 °FCool.2 mph90%30.05 "HgN/A
8:00 PM62 °FPassing clouds.1 mph90%30.02 "Hg12 mi
7:00 PM65 °FMild.1 mph81%30.00 "HgN/A
Weather by CustomWeather, © 2014

See weather overviewHow to use our weather pages